Mt Hood
Skibowl Ski Area - Government Camp
Latest observation 08/31 21:00 PDT
| Time (PDT) | Temp °F 5010' | Temp °F 3660' | RH % 5010' | RH % 3660' | Min 5010' | Spd 5010' | Gust 5010' | Dir 5010' | Pcp1 in 3660' | PcpSum in 3660' | SnoHt 5010' |
|---|---|---|---|---|---|---|---|---|---|---|---|
| 08/31 21:00 | – | 58 | – | 67 | – | – | – | – | 0.00 | 0.00 | – |
| 08/31 20:00 | – | 63 | – | 60 | – | – | – | – | 0.00 | 0.00 | – |
| 08/31 19:00 | – | 67 | – | 47 | – | – | – | – | 0.00 | 0.00 | – |
| 08/31 18:00 | – | 71 | – | 39 | – | – | – | – | 0.00 | 0.00 | – |
| 08/31 17:00 | – | 74 | – | 35 | – | – | – | – | 0.00 | 0.00 | – |
| 08/31 16:00 | – | 75 | – | 26 | – | – | – | – | 0.00 | 0.00 | – |
| 08/31 15:00 | – | 75 | – | 25 | – | – | – | – | 0.00 | 0.00 | – |
| 08/31 14:00 | – | 74 | – | 23 | – | – | – | – | 0.00 | 0.00 | – |
| 08/31 13:00 | – | 73 | – | 23 | – | – | – | – | 0.00 | 0.00 | – |
| 08/31 12:00 | – | 71 | – | 25 | – | – | – | – | 0.00 | 0.00 | – |
| 08/31 11:00 | – | 66 | – | 43 | – | – | – | – | 0.00 | 0.00 | – |
| 08/31 10:00 | – | 61 | – | 47 | – | – | – | – | 0.00 | 0.00 | – |
| 08/31 09:00 | – | 54 | – | 64 | – | – | – | – | 0.00 | 0.00 | – |
| 08/31 08:00 | – | 55 | – | 53 | – | – | – | – | 0.00 | 0.00 | – |
| 08/31 07:00 | – | 51 | – | 66 | – | – | – | – | 0.00 | 0.00 | – |
| 08/31 06:00 | – | 48 | – | 77 | – | – | – | – | 0.00 | 0.00 | – |
| 08/31 05:00 | – | 48 | – | 77 | – | – | – | – | 0.00 | 0.00 | – |
| 08/31 04:00 | – | 47 | – | 80 | – | – | – | – | 0.00 | 0.00 | – |
| 08/31 03:00 | – | 47 | – | 83 | – | – | – | – | 0.00 | 0.00 | – |
| 08/31 02:00 | – | 46 | – | 85 | – | – | – | – | 0.00 | 0.00 | – |
| 08/31 01:00 | – | 47 | – | 84 | – | – | – | – | 0.00 | 0.00 | – |
| 08/31 00:00 | – | 46 | – | 86 | – | – | – | – | 0.00 | 0.00 | – |
| 08/30 23:00 | – | 45 | – | 87 | – | – | – | – | 0.00 | 0.00 | – |
| 08/30 22:00 | – | 46 | – | 85 | – | – | – | – | 0.00 | 0.00 | – |

